Main page
METAR-TAF:

METAR-TAF

Airports :

Bushehr Airport

Bushehr, Iran

latitude: 28-59N, longitude: 050-50E, elevation: 19 m

Current weather observation

The report was made 18 minutes ago, at 14:00 UTC
Wind 10 kt from the West/Southwest
Temperature 36°C
Humidity 45%
Pressure 995 hPa
Visibility 10 km or more
no clouds below 1500 m and no cumulonimbus

METAR: OIBB 181400Z 24010KT CAVOK 36/22 Q0994 A2938

Time: 18:48 (14:18 UTC)


TAF: missing

Weather observations and forecasts of more than 4000 airports (METAR and TAF reports).

The available stations are represented by yellow and red dots on the map.

Hover mouse over dot to see the name of the station.

Then click to see weather observations and forecasts.

To change the map : click on the green buttons with a black cross to zoom in, on the green button with a dash to zoom out, or on the green arrows for adjacent maps.


METAR-TAF: